Location: Ostrava
(49.8330°N, 18.2830°E)
Time: 02:16:34
(UTC+02:00)

Cosmos 2221 - Visible Passes

Search period start: 29 August 2015 00:00
Search period end: 08 September 2015 00:00
Orbit: 595 x 619 km, 82.5° (Epoch: 28 August)

Date Brightness Start Highest point End Pass type
(mag) Time Alt. Az. Time Alt. Az. Time Alt. Az.
29 Aug 4.3 00:55:38 29° NNW 00:55:38 29° NNW 00:58:11 10° N visible
29 Aug 4.5 23:32:16 22° NE 23:32:16 22° NE 23:34:05 10° NNE visible
30 Aug 4.6 01:09:09 22° NW 01:09:09 22° NW 01:11:29 10° NNW visible
30 Aug 4.3 23:45:46 27° NNE 23:45:46 27° NNE 23:47:53 10° NNE visible
31 Aug 4.9 01:22:40 16° NW 01:22:40 16° NW 01:24:33 10° NNW visible
31 Aug 4.2 23:59:16 31° N 23:59:16 31° N 00:01:33 10° N visible
01 Sep 5.3 01:36:10 11° NW 01:36:10 11° NW 01:36:58 10° NW visible
01 Sep 4.9 22:35:51 13° NE 22:35:51 13° NE 22:36:30 10° NE visible
02 Sep 4.3 00:12:45 29° NNW 00:12:45 29° NNW 00:15:05 10° N visible
02 Sep 4.7 22:49:20 17° NE 22:49:20 17° NE 22:50:41 10° NNE visible
03 Sep 4.6 00:26:14 24° NNW 00:26:14 24° NNW 00:28:29 10° N visible
03 Sep 4.4 23:02:48 23° NE 23:02:48 23° NE 23:04:36 10° NNE visible
04 Sep 4.9 00:39:42 19° NW 00:39:42 19° NW 00:41:43 10° NNW visible
04 Sep 4.3 23:16:15 27° NNE 23:16:15 27° NNE 23:18:20 10° NNE visible
05 Sep 5.2 00:53:09 14° NW 00:53:09 14° NW 00:54:37 10° NNW visible
05 Sep 4.3 23:29:42 29° N 23:29:42 29° N 23:31:56 10° N visible
06 Sep 4.8 22:06:15 14° NE 22:06:15 14° NE 22:07:11 10° NE visible
06 Sep 4.5 23:43:08 27° NNW 23:43:08 27° NNW 23:45:25 10° N visible
07 Sep 4.5 22:19:40 20° NE 22:19:40 20° NE 22:21:14 10° NNE visible
07 Sep 4.8 23:56:33 22° NW 23:56:33 22° NW 23:58:45 10° N visible
